This is the latest recevied weather packets stored in our database for station/object KC3JUG-3. If no packets are shown the sender has not sent any weather packets the latest 10 day(s).
| Time | Temp. | Humidity | Pressure | Rain* | Wind** | Luminosity | Snow |
|---|---|---|---|---|---|---|---|
| 1778029848 | 21.11° C | 57% | 1011.4 hPa | 0 mm | - | - | - |
| 1778028948 | 21.11° C | 56% | 1011.2 hPa | 0 mm | - | - | - |
| 1778028048 | 21.11° C | 55% | 1011 hPa | 0 mm | - | - | - |
| 1778027147 | 21.67° C | 53% | 1010.9 hPa | 0 mm | - | - | - |
| 1778025657 | 22.22° C | 51% | 1010.7 hPa | 0 mm | - | - | - |
| 1778022649 | 23.89° C | 48% | 1010.4 hPa | 0 mm | - | - | - |
| 1778022053 | 23.89° C | 46% | 1010.4 hPa | 0 mm | - | - | - |
| 1778021745 | 24.44° C | 45% | 1010.5 hPa | 0 mm | - | - | - |
| 1778021447 | 24.44° C | 45% | 1010.4 hPa | 0 mm | - | - | - |
| 1778020848 | 24.44° C | 46% | 1010.3 hPa | 0 mm | - | - | - |
| 1778019947 | 24.44° C | 45% | 1010.4 hPa | 0 mm | - | - | - |
| 1778019047 | 25° C | 45% | 1010.6 hPa | 0 mm | - | - | - |
| 1778018745 | 25° C | 44% | 1010.5 hPa | 0 mm | - | - | - |
| 1778016947 | 25.56° C | 42% | 1010.3 hPa | 0 mm | - | - | - |
| 1778015146 | 25.56° C | 42% | 1010 hPa | 0 mm | - | - | - |
| 1778013647 | 26.11° C | 41% | 1010.1 hPa | 0 mm | - | - | - |
| 1778010945 | 26.11° C | 43% | 1010.5 hPa | 0 mm | - | - | - |
| 1778008248 | 25.56° C | 43% | 1011.1 hPa | 0 mm | - | - | - |
| 1778007648 | 25.56° C | 46% | 1011.1 hPa | 0 mm | - | - | - |
| 1778007347 | 25.56° C | 48% | 1011.1 hPa | 0 mm | - | - | - |
| 1778002254 | 25° C | 52% | 1011.6 hPa | 0 mm | - | - | - |
| 1777999555 | 25° C | 47% | 1012 hPa | 0 mm | - | - | - |
| 1777998949 | 25° C | 48% | 1012.1 hPa | 0 mm | - | - | - |
| 1777998658 | 24.44° C | 47% | 1012 hPa | 0 mm | - | - | - |
| 1777997448 | 24.44° C | 49% | 1012.3 hPa | 0 mm | - | - | - |
* Rain latest hour (hover to see other rain measurements)
** Current wind speed in m/s (hover to see current wind gust speed)